User: anonymous   Login
Location: Unspecified
(0.0000°N, 0.0000°E)
Time: 15:30:30
(UTC+00:00)
Language:

Transit 4B - Orbit

View from above orbital plane
View from above orbital plane
View from above satellite
View from above satellite

Ground track
Ground track

The orbit data is extracted from the following two-line orbital elements,

1 00202U 61031A   17229.23047151  .00000046  00000-0  26199-4 0  9990
2 00202  32.4390 315.4717 0101121 197.6057 162.1044 13.63504528780499
Epoch (UTC): 17 August 2017 05:31:52
Eccentricity: 0.0101121
inclination: 32.4390°
perigee height: 948 km
apogee height: 1098 km
right ascension of ascending node: 315.4717°
argument of perigee: 197.6057°
revolutions per day: 13.63504528
mean anomaly at epoch: 162.1044°
orbit number at epoch: 78049

The dashed part of the orbit path shows where the satellite is in the earth's shadow,  

DLR